This is the latest recevied weather packets stored in our database for station/object AB4KY. If no packets are shown the sender has not sent any weather packets the latest 10 day(s).
| Time | Temp. | Humidity | Pressure | Rain* | Wind** | Luminosity | Snow |
|---|---|---|---|---|---|---|---|
| 1777863365 | 13.33° C | 59% | 1011.5 hPa | 0 mm | - | 0 W/m² | - |
| 1777863062 | 13.33° C | 59% | 1011.6 hPa | 0 mm | - | 0 W/m² | - |
| 1777862759 | 13.33° C | 60% | 1011.4 hPa | 0 mm | - | 0 W/m² | - |
| 1777862456 | 13.89° C | 59% | 1011.4 hPa | 0 mm | - | 0 W/m² | - |
| 1777862152 | 13.89° C | 61% | 1011.4 hPa | 0 mm | - | 0 W/m² | - |
| 1777861848 | 13.89° C | 58% | 1011.6 hPa | 0 mm | - | 0 W/m² | - |
| 1777861544 | 13.89° C | 60% | 1011.7 hPa | 0 mm | - | 0 W/m² | - |
| 1777861241 | 13.89° C | 59% | 1011.5 hPa | 0 mm | - | 0 W/m² | - |
| 1777860938 | 13.33° C | 59% | 1011.8 hPa | 0 mm | - | 0 W/m² | - |
| 1777860635 | 13.33° C | 63% | 1011.6 hPa | 0 mm | - | 0 W/m² | - |
| 1777860332 | 13.33° C | 63% | 1011.9 hPa | 0 mm | - | 0 W/m² | - |
| 1777860028 | 13.33° C | 61% | 1011.9 hPa | 0 mm | - | 0 W/m² | - |
| 1777859725 | 13.33° C | 62% | 1011.8 hPa | 0 mm | - | 0 W/m² | - |
| 1777859421 | 12.78° C | 62% | 1011.8 hPa | 0 mm | - | 0 W/m² | - |
| 1777859117 | 13.33° C | 63% | 1011.9 hPa | 0 mm | - | 0 W/m² | - |
| 1777858814 | 13.33° C | 62% | 1011.8 hPa | 0 mm | - | 0 W/m² | - |
| 1777858512 | 12.78° C | 63% | 1011.9 hPa | 0 mm | - | 0 W/m² | - |
| 1777858209 | 13.33° C | 63% | 1011.8 hPa | 0 mm | - | 0 W/m² | - |
| 1777857906 | 13.33° C | 62% | 1012 hPa | 0 mm | - | 0 W/m² | - |
| 1777857604 | 12.78° C | 64% | 1012 hPa | 0 mm | - | 0 W/m² | - |
| 1777857300 | 12.78° C | 65% | 1012.1 hPa | 0 mm | - | 0 W/m² | - |
| 1777856996 | 13.33° C | 64% | 1011.8 hPa | 0 mm | - | 0 W/m² | - |
| 1777856692 | 13.33° C | 64% | 1011.7 hPa | 0 mm | - | 0 W/m² | - |
| 1777856388 | 13.33° C | 63% | 1011.7 hPa | 0 mm | - | 0 W/m² | - |
| 1777856085 | 13.89° C | 62% | 1011.8 hPa | 0 mm | - | 0 W/m² | - |
* Rain latest hour (hover to see other rain measurements)
** Current wind speed in m/s (hover to see current wind gust speed)